TimeCST,TemperatureF,Dew PointF,Humidity,Sea Level PressureIn,VisibilityMPH,Wind Direction,Wind SpeedMPH,Gust SpeedMPH,PrecipitationIn,Events,Conditions,WindDirDegrees,DateUTC
12:54 AM,19.9,18.0,92,30.01,1.0,East,4.6,-,0.02,Snow,Light Snow,100,2013-02-04 06:54:00
1:54 AM,19.9,18.0,92,29.98,0.8,SE,6.9,-,0.03,Snow,Light Snow,130,2013-02-04 07:54:00
2:54 AM,21.0,18.0,88,29.96,0.8,East,5.8,-,0.06,Snow,Light Snow,100,2013-02-04 08:54:00
4:54 AM,21.0,18.0,88,29.92,0.8,East,9.2,-,0.03,Snow,Light Snow,90,2013-02-04 10:54:00
5:37 AM,21.2,17.6,86,29.87,2.0,East,10.4,-,0.01,Snow,Light Snow,80,2013-02-04 11:37:00
5:54 AM,21.0,18.0,88,29.91,2.0,ENE,11.5,-,0.02,Snow,Light Snow,70,2013-02-04 11:54:00
6:34 AM,21.2,17.6,86,29.87,2.0,ENE,11.5,-,0.00,Snow,Light Snow,70,2013-02-04 12:34:00
6:45 AM,21.2,17.6,86,29.87,5.0,ENE,10.4,-,0.00,Snow,Light Snow,70,2013-02-04 12:45:00
6:54 AM,21.0,18.0,88,29.91,6.0,ENE,11.5,-,0.00,Snow,Light Snow,70,2013-02-04 12:54:00
7:54 AM,19.9,17.1,89,29.92,8.0,NE,11.5,-,0.00,Snow,Light Snow,50,2013-02-04 13:54:00
8:54 AM,19.9,15.1,81,29.93,9.0,NE,16.1,-,0.00,Snow,Light Snow,50,2013-02-04 14:54:00
9:54 AM,21.0,16.0,81,29.93,8.0,NE,12.7,-,0.00,Snow,Light Snow,40,2013-02-04 15:54:00
10:28 AM,21.2,15.8,80,29.90,8.0,NNE,15.0,-,0.00,Snow,Light Snow,30,2013-02-04 16:28:00
10:54 AM,21.9,16.0,78,29.95,8.0,NE,13.8,-,0.00,Snow,Light Snow,40,2013-02-04 16:54:00
11:54 AM,21.9,16.0,78,29.94,8.0,NNE,12.7,-,0.00,Snow,Light Snow,20,2013-02-04 17:54:00
12:54 PM,21.9,15.1,75,29.95,10.0,North,11.5,-,0.00,,Overcast,360,2013-02-04 18:54:00
1:51 PM,21.2,15.8,80,29.94,10.0,North,15.0,18.4,N/A,,Overcast,360,2013-02-04 19:51:00
1:54 PM,21.9,15.1,75,29.97,10.0,North,15.0,18.4,N/A,,Overcast,360,2013-02-04 19:54:00
2:54 PM,21.9,15.1,75,29.94,10.0,NNE,13.8,-,N/A,,Mostly Cloudy,20,2013-02-04 20:54:00
3:54 PM,21.0,12.9,71,29.96,10.0,North,11.5,-,N/A,,Partly Cloudy,10,2013-02-04 21:54:00
4:54 PM,19.0,10.9,71,29.98,10.0,North,11.5,-,N/A,,Partly Cloudy,10,2013-02-04 22:54:00
5:54 PM,16.0,8.1,71,30.01,10.0,North,6.9,-,N/A,,Partly Cloudy,350,2013-02-04 23:54:00
6:54 PM,12.9,7.0,77,30.01,10.0,NNW,4.6,-,N/A,,Scattered Clouds,330,2013-02-05 00:54:00
7:54 PM,12.9,5.0,71,30.04,10.0,NNW,5.8,-,N/A,,Mostly Cloudy,330,2013-02-05 01:54:00
8:54 PM,12.0,5.0,73,30.02,10.0,NNW,3.5,-,N/A,,Mostly Cloudy,340,2013-02-05 02:54:00
9:54 PM,10.9,3.9,73,30.02,10.0,Calm,Calm,-,N/A,,Mostly Cloudy,0,2013-02-05 03:54:00
10:54 PM,8.1,3.9,83,30.02,10.0,Calm,Calm,-,N/A,,Mostly Cloudy,0,2013-02-05 04:54:00
11:54 PM,7.0,3.0,84,30.01,9.0,SW,3.5,-,N/A,,Mostly Cloudy,220,2013-02-05 05:54:00